| time (UTC) | temp F | wind direction | speed knots | gust knots | rain 1hr in | rain 24hr in | rain mn in | humidity % | barometer mb |
| 20260508184445 | 61 | 360 | 13.9 | 19.1 | 0.00 | 0.00 | 0.00 | 49 | 1006.4 |
| 20260508182944 | 62 | 337 | 12.2 | 13.9 | 0.00 | 0.00 | 0.00 | 50 | 1006.4 |
| 20260508181445 | 60 | 225 | 7.8 | 14.8 | 0.00 | 0.00 | 0.00 | 52 | 1006.1 |
| 20260508175945 | 61 | 225 | 10.4 | 14.8 | 0.00 | 0.00 | 0.00 | 52 | 1006.1 |
| 20260508174444 | 61 | 247 | 11.3 | 12.2 | 0.00 | 0.00 | 0.00 | 53 | 1005.7 |
| 20260508172945 | 61 | 292 | 6.1 | 12.2 | 0.00 | 0.00 | 0.00 | 53 | 1006.4 |
| 20260508171443 | 59 | 247 | 7.8 | 10.4 | 0.00 | 0.00 | 0.00 | 56 | 1006.4 |
| 20260508165944 | 59 | 270 | 11.3 | 13.0 | 0.00 | 0.00 | 0.00 | 57 | 1006.4 |
| 20260508164445 | 60 | 225 | 8.7 | 0.0 | 0.00 | 0.00 | 0.00 | 56 | 1006.7 |
| 20260508162944 | 59 | 270 | 12.2 | 13.0 | 0.00 | 0.00 | 0.00 | 56 | 1007.4 |
| 20260508161444 | 58 | 270 | 9.6 | 12.2 | 0.00 | 0.00 | 0.00 | 58 | 1007.4 |
| 20260508155945 | 58 | 247 | 13.9 | 0.0 | 0.00 | 0.00 | 0.00 | 58 | 1007.4 |
| 20260508154444 | 59 | 202 | 8.7 | 10.4 | 0.00 | 0.00 | 0.00 | 57 | 1007.4 |
| 20260508152945 | 58 | 360 | 8.7 | 14.8 | 0.00 | 0.00 | 0.00 | 59 | 1007.7 |
| 20260508151446 | 56 | 292 | 7.0 | 13.9 | 0.00 | 0.00 | 0.00 | 61 | 1008.1 |
| 20260508145944 | 57 | 270 | 7.8 | 14.8 | 0.00 | 0.00 | 0.00 | 60 | 1008.1 |
| 20260508144445 | 56 | 270 | 7.8 | 12.2 | 0.00 | 0.00 | 0.00 | 62 | 1007.7 |
| 20260508142943 | 55 | 270 | 12.2 | 0.0 | 0.00 | 0.00 | 0.00 | 62 | 1008.1 |
| 20260508141444 | 55 | 315 | 12.2 | 0.0 | 0.00 | 0.00 | 0.00 | 62 | 1008.1 |
| 20260508135945 | 54 | 180 | 6.1 | 14.8 | 0.00 | 0.00 | 0.00 | 62 | 1008.4 |
| 20260508134444 | 54 | 292 | 9.6 | 10.4 | 0.00 | 0.00 | 0.00 | 64 | 1008.4 |
| 20260508132945 | 52 | 315 | 12.2 | 14.8 | 0.00 | 0.00 | 0.00 | 64 | 1008.1 |
| 20260508131445 | 52 | 270 | 10.4 | 14.8 | 0.00 | 0.00 | 0.00 | 64 | 1008.1 |
| 20260508125944 | 52 | 270 | 10.4 | 17.4 | 0.00 | 0.00 | 0.00 | 65 | 1008.4 |
| 20260508124445 | 52 | 270 | 7.0 | 12.2 | 0.00 | 0.00 | 0.00 | 65 | 1008.1 |
| 20260508122946 | 52 | 247 | 13.0 | 0.0 | 0.00 | 0.00 | 0.00 | 67 | 1007.7 |
| 20260508121444 | 51 | 270 | 16.5 | 0.0 | 0.00 | 0.00 | 0.00 | 67 | 1007.4 |
| 20260508115945 | 51 | 202 | 6.1 | 9.6 | 0.00 | 0.00 | 0.00 | 70 | 1007.1 |
| 20260508114444 | 50 | 270 | 9.6 | 0.0 | 0.00 | 0.00 | 0.00 | 73 | 1006.7 |
| 20260508112944 | 50 | 270 | 7.0 | 9.6 | 0.00 | 0.00 | 0.00 | 76 | 1007.1 |
| 20260508111445 | 49 | 270 | 6.1 | 7.0 | 0.00 | 0.00 | 0.00 | 77 | 1006.7 |
| 20260508105944 | 48 | 292 | 7.0 | 0.0 | 0.00 | 0.00 | 0.00 | 80 | 1006.7 |
| 20260508104445 | 48 | 270 | 3.5 | 7.0 | 0.00 | 0.00 | 0.00 | 82 | 1006.4 |
| 20260508102945 | 48 | 315 | 7.0 | 0.0 | 0.00 | 0.00 | 0.00 | 82 | 1005.7 |
| 20260508101444 | 48 | 270 | 4.3 | 5.2 | 0.00 | 0.00 | 0.00 | 83 | 1005.4 |
| 20260508095945 | 48 | 292 | 7.8 | 0.0 | 0.00 | 0.00 | 0.00 | 84 | 1005.4 |
| 20260508094443 | 49 | 247 | 7.0 | 0.0 | 0.00 | 0.00 | 0.00 | 83 | 1005.4 |
| 20260508092944 | 49 | 247 | 7.0 | 7.8 | 0.00 | 0.00 | 0.00 | 84 | 1004.7 |
| 20260508091445 | 49 | 270 | 8.7 | 9.6 | 0.00 | 0.00 | 0.00 | 86 | 1005.0 |
| 20260508085943 | 49 | 180 | 7.8 | 0.0 | 0.00 | 0.00 | 0.00 | 89 | 1005.0 |
| 20260508084444 | 49 | 270 | 3.5 | 5.2 | 0.00 | 0.00 | 0.00 | 91 | 1004.7 |
| 20260508082945 | 49 | 292 | 4.3 | 0.0 | 0.00 | 0.00 | 0.00 | 92 | 1004.7 |
| 20260508081444 | 49 | 270 | 6.1 | 7.0 | 0.00 | 0.00 | 0.00 | 92 | 1004.7 |
| 20260508075944 | 49 | 292 | 7.0 | 7.8 | 0.00 | 0.00 | 0.00 | 92 | 1004.4 |
| 20260508074445 | 50 | 270 | 5.2 | 7.0 | 0.00 | 0.00 | 0.00 | 91 | 1004.4 |
| 20260508072944 | 50 | 270 | 7.0 | 0.0 | 0.00 | 0.00 | 0.00 | 91 | 1004.4 |
| 20260508071445 | 50 | 247 | 6.1 | 7.8 | 0.00 | 0.00 | 0.00 | 92 | 1004.4 |
| 20260508065945 | 51 | 360 | 1.7 | 5.2 | 0.00 | 0.00 | 0.00 | 91 | 1004.7 |
| 20260508064444 | 51 | 247 | 5.2 | 0.0 | 0.00 | 0.00 | 0.00 | 88 | 1004.4 |
| 20260508062945 | 52 | 270 | 5.2 | 7.0 | 0.00 | 0.00 | 0.00 | 83 | 1004.7 |
| 20260508061443 | 52 | 270 | 7.8 | 11.3 | 0.00 | 0.00 | 0.00 | 83 | 1004.7 |
| 20260508055944 | 53 | 247 | 3.5 | 8.7 | 0.00 | 0.00 | 0.00 | 82 | 1004.7 |
| 20260508054445 | 53 | 270 | 7.0 | 9.6 | 0.00 | 0.00 | 0.00 | 83 | 1004.4 |
| 20260508052944 | 53 | 225 | 5.2 | 7.8 | 0.00 | 0.00 | 0.00 | 82 | 1004.4 |
| 20260508051444 | 53 | 225 | 9.6 | 0.0 | 0.00 | 0.00 | 0.00 | 84 | 1004.4 |
| 20260508045945 | 54 | 247 | 9.6 | 0.0 | 0.00 | 0.00 | 0.00 | 84 | 1004.4 |
| 20260508044444 | 54 | 225 | 12.2 | 0.0 | 0.00 | 0.00 | 0.00 | 84 | 1004.4 |
| 20260508042945 | 54 | 270 | 9.6 | 12.2 | 0.00 | 0.00 | 0.00 | 84 | 1004.0 |
| 20260508041445 | 54 | 225 | 3.5 | 10.4 | 0.00 | 0.00 | 0.00 | 85 | 1003.7 |
| 20260508035944 | 55 | 292 | 9.6 | 0.0 | 0.00 | 0.00 | 0.00 | 84 | 1003.7 |
| 20260508034445 | 55 | 315 | 5.2 | 9.6 | 0.00 | 0.00 | 0.00 | 83 | 1004.0 |
| 20260508032943 | 55 | 225 | 7.8 | 9.6 | 0.00 | 0.00 | 0.00 | 84 | 1004.0 |
| 20260508031449 | 55 | 270 | 6.1 | 9.6 | 0.00 | 0.00 | 0.00 | 84 | 1004.4 |
| 20260508025945 | 55 | 270 | 5.2 | 6.1 | 0.00 | 0.00 | 1.64 | 88 | 1004.0 |
| 20260508024443 | 55 | 270 | 5.2 | 0.0 | 0.00 | 0.00 | 1.64 | 88 | 1003.7 |
| 20260508022944 | 54 | 337 | 1.7 | 4.3 | 0.00 | 0.00 | 1.64 | 89 | 1003.7 |
| 20260508021445 | 54 | 112 | 9.6 | 0.0 | 0.00 | 0.00 | 1.64 | 90 | 1003.7 |
| 20260508015944 | 54 | 247 | 6.1 | 7.8 | 0.00 | 0.00 | 1.64 | 91 | 1003.7 |
| 20260508014444 | 54 | 315 | 7.0 | 8.7 | 0.00 | 0.00 | 1.64 | 92 | 1003.7 |
| 20260508012945 | 53 | 292 | 5.2 | 7.8 | 0.00 | 0.00 | 1.64 | 94 | 1003.0 |
| 20260508011444 | 53 | 247 | 4.3 | 6.1 | 0.00 | 0.00 | 1.64 | 95 | 1002.7 |
| 20260508005945 | 53 | 270 | 3.5 | 6.1 | 0.00 | 0.00 | 1.64 | 95 | 1002.0 |
| 20260508004445 | 53 | 247 | 7.0 | 0.0 | 0.00 | 0.00 | 1.64 | 95 | 1002.0 |
| 20260508002944 | 53 | 225 | 7.0 | 9.6 | 0.00 | 0.00 | 1.64 | 96 | 1002.0 |
| 20260508001445 | 54 | 202 | 6.1 | 7.0 | 0.00 | 0.00 | 1.64 | 96 | 1002.0 |
| 20260507235943 | 54 | 247 | 5.2 | 0.0 | 0.00 | 0.00 | 1.64 | 96 | 1003.0 |
| 20260507234444 | 54 | 225 | 2.6 | 4.3 | 0.00 | 0.00 | 1.64 | 96 | 1003.0 |
| 20260507232945 | 54 | 270 | 5.2 | 7.0 | 0.00 | 0.00 | 1.64 | 97 | 1003.0 |
| 20260507231444 | 54 | 22 | 6.1 | 7.8 | 0.00 | 0.00 | 1.64 | 97 | 1002.7 |
| 20260507225944 | 54 | 247 | 3.5 | 5.2 | 0.00 | 0.00 | 1.64 | 97 | 1003.0 |
| 20260507224445 | 54 | 180 | 2.6 | 7.8 | 0.00 | 0.00 | 1.64 | 97 | 1002.7 |
| 20260507222944 | 55 | 270 | 7.0 | 0.0 | 0.00 | 0.00 | 1.64 | 97 | 1003.0 |
| 20260507221445 | 55 | 202 | 1.7 | 2.6 | 0.00 | 0.00 | 1.64 | 97 | 1001.6 |
| 20260507215945 | 55 | 135 | 4.3 | 0.0 | 0.00 | 0.00 | 1.64 | 97 | 1003.0 |
| 20260507214445 | 56 | 112 | 2.6 | 5.2 | 0.00 | 0.00 | 1.62 | 96 | 1003.0 |
| 20260507212945 | 56 | 270 | 4.3 | 0.0 | 0.00 | 0.00 | 1.59 | 96 | 1005.0 |
| 20260507211443 | 56 | 270 | 4.3 | 8.7 | 0.00 | 0.00 | 1.59 | 96 | 1004.7 |
| 20260507205944 | 56 | 270 | 7.8 | 9.6 | 0.00 | 0.00 | 1.57 | 96 | 1004.7 |
| 20260507204445 | 56 | 225 | 7.0 | 10.4 | 0.00 | 0.00 | 1.57 | 96 | 1004.7 |
| 20260507202943 | 56 | 270 | 5.2 | 8.7 | 0.00 | 0.00 | 1.52 | 95 | 1003.0 |
| 20260507201444 | 58 | 225 | 6.1 | 7.8 | 0.00 | 0.00 | 1.47 | 93 | 1004.4 |
| 20260507195945 | 61 | 225 | 6.1 | 7.8 | 0.00 | 0.00 | 1.42 | 81 | 1003.0 |
| 20260507194444 | 62 | 157 | 1.7 | 5.2 | 0.00 | 0.00 | 1.42 | 85 | 1000.0 |
| 20260507192944 | 62 | 292 | 5.2 | 0.0 | 0.00 | 0.00 | 1.42 | 85 | 1000.0 |
| 20260507191445 | 63 | 270 | 5.2 | 7.0 | 0.00 | 0.00 | 1.42 | 83 | 998.9 |
| 20260507185944 | 64 | 270 | 4.3 | 7.8 | 0.00 | 0.00 | 1.42 | 85 | 998.9 |